Location: Izdebno
(52.6670°N, 16.2170°E)
Time: 03:56:13
(UTC+02:00)

Transit 2A - Pass Details

Date: 03 March 2024
Orbit: 596 x 956 km, 66.7° (Epoch: 21 April)

Event Time Altitude Azimuth Distance (km) Brightness Sun altitude
Rises 16:44:38 0° 163° (SSE) 2,841 9.0 7.0°
Reaches altitude 10° 16:47:55 10° 137° (SE) 1,932 7.9 6.6°
Maximum altitude 16:49:59 13° 108° (ESE) 1,725 7.4 6.3°
Drops below altitude 10° 16:52:05 10° 78° (ENE) 1,949 7.5 6.0°
Sets 16:55:24 0° 52° (NE) 2,889 8.4 5.5°
